Location: Assche-ter-Heiden
(50.9174°N, 4.1574°E)
Time: 18:45:09
(UTC+00:00)

USA 215 - Pass Details

Date: 20 January 2020
Orbit: 1098 x 1110 km, 123.0° (Epoch: 24 February)

Event Time Altitude Azimuth Distance (km) Brightness Sun altitude
Rises 05:58:23 0° 165° (SSE) 3,901 6.5 -14.9°
Reaches altitude 10° 06:01:21 10° 178° (S) 2,949 5.7 -14.5°
Maximum altitude 06:06:36 26° 233° (SW) 2,026 4.3 -13.7°
Enters shadow 06:10:12 17° 275° (W) 2,506 4.5 -13.1°
